Palacios, TX

6:28 AM CDT on June 28, 2017 (GMT -0500)
Palacios Municipal

Weather History for KPSX - February, 2011

Change the Weather History Date:

Thursday, February 3, 2011

  Actual Average Record
Temperature  
Mean Temperature 30 °F -  
Max Temperature 32 °F 61 °F 78 °F (1954)
Min Temperature 27 °F 43 °F 16 °F (1951)
Degree Days  
Heating Degree Days 36    
Moisture  
Dew Point 22 °F    
Average Humidity 74    
Maximum Humidity 96    
Minimum Humidity 59    
Precipitation  
Precipitation 0.00 in - - ()
Sea Level Pressure  
Sea Level Pressure 30.40 in    
Wind  
Wind Speed 18 mph (North)    
Max Wind Speed 22 mph    
Max Gust Speed 25 mph    
Visibility 8 miles    
Events Rain    
Averages and records for this station are not official NWS values.
T = Trace of Precipitation, MM = Missing Value Source: NWS Daily Summary

Daily Weather History Graph

Daily Weather History Graph

Search for Another Location

Airport or City:

Trip Planner

Search our weather history database for the weather conditions in past years. The results will help you decide how hot, cold, wet, or windy it might be!

Date:

Astronomy

Feb. 03, 2011 Rise Set
Actual Time 7:12 AM CST 6:05 PM CST
Civil Twilight 6:47 AM CST 6:30 PM CST
Nautical Twilight 6:19 AM CST 6:58 PM CST
Astronomical Twilight 5:51 AM CST 7:26 PM CST
Moon 7:19 AM CST (2/3) 6:52 PM CST (2/3)
Length of Visible Light 11h 42m
Length of Day
10h 53m
New Moon, 0% of the Moon is Illuminated
Feb 3
New Moon
Feb 11
First Quarter
Feb 18
Full
Feb 24
Last Quarter
Mar 4
New

Hourly Weather History & Observations

Time (CST) Temp. Windchill Dew Point Humidity Pressure Visibility Wind Dir Wind Speed Gust Speed Precip Events Conditions
12:53 AM 28.9 °F 16.5 °F 18.0 °F 64% 30.50 in 10.0 mi North 18.4 mph - N/A   Overcast
1:53 AM 28.9 °F 16.1 °F 18.0 °F 64% 30.50 in 10.0 mi North 19.6 mph - N/A   Overcast
2:53 AM 28.4 °F 15.4 °F 17.6 °F 64% 30.48 in 10.0 mi North 19.6 mph - N/A   Overcast
3:53 AM 28.0 °F 14.6 °F 18.0 °F 66% 30.48 in 10.0 mi North 20.7 mph - N/A   Overcast
4:53 AM 28.0 °F 15.3 °F 18.0 °F 66% 30.47 in 10.0 mi NNW 18.4 mph - N/A   Mostly Cloudy
5:53 AM 27.0 °F 13.5 °F 18.0 °F 69% 30.46 in 10.0 mi North 19.6 mph 25.3 mph N/A   Overcast
6:53 AM 27.0 °F 13.5 °F 18.0 °F 69% 30.48 in 10.0 mi North 19.6 mph 24.2 mph N/A   Overcast
7:53 AM 28.0 °F 14.3 °F 17.1 °F 63% 30.48 in 10.0 mi North 21.9 mph - N/A   Overcast
8:53 AM 28.4 °F 15.4 °F 17.6 °F 64% 30.49 in 10.0 mi North 19.6 mph - N/A   Overcast
12:53 PM 30.9 °F 19.8 °F 18.0 °F 59% 30.43 in 10.0 mi North 16.1 mph - N/A   Mostly Cloudy
1:53 PM 30.9 °F 20.2 °F 19.0 °F 61% 30.40 in 10.0 mi North 15.0 mph - N/A   Unknown
2:53 PM 32.0 °F 21.2 °F 19.9 °F 61% 30.36 in 10.0 mi North 16.1 mph - N/A   Mostly Cloudy
3:53 PM 32.0 °F 20.8 °F 19.9 °F 61% 30.34 in 10.0 mi North 17.3 mph - N/A   Mostly Cloudy
4:53 PM 32.0 °F 22.5 °F 19.9 °F 61% 30.33 in 10.0 mi NNE 12.7 mph - N/A   Overcast
5:53 PM 32.0 °F 22.1 °F 19.9 °F 61% 30.32 in 10.0 mi North 13.8 mph - N/A   Overcast
6:53 PM 32.0 °F 20.8 °F 19.9 °F 61% 30.32 in 10.0 mi North 17.3 mph 20.7 mph N/A   Overcast
7:53 PM 32.0 °F 21.2 °F 21.0 °F 64% 30.32 in 10.0 mi North 16.1 mph - N/A   Overcast
8:53 PM 30.0 °F 18.3 °F 24.1 °F 79% 30.34 in 8.0 mi North 17.3 mph - N/A   Overcast
9:20 PM 28.4 °F 17.5 °F 24.8 °F 86% 30.35 in 5.0 mi North 13.8 mph - 0.00 in Rain Light Freezing Rain
9:53 PM 28.9 °F 18.6 °F 27.0 °F 92% 30.35 in 4.0 mi NNW 12.7 mph - 0.00 in Rain Light Freezing Rain
10:09 PM 28.4 °F 16.2 °F 26.6 °F 93% 30.36 in 3.0 mi NNW 17.3 mph - 0.00 in Rain Light Freezing Rain
10:28 PM 28.4 °F 17.5 °F 26.6 °F 93% 30.36 in 3.0 mi NNW 13.8 mph - 0.00 in Rain Light Freezing Rain
10:53 PM 28.9 °F 16.9 °F 27.0 °F 92% 30.36 in 2.5 mi NNW 17.3 mph - 0.00 in Rain Light Freezing Rain
11:00 PM 28.4 °F 16.2 °F 26.6 °F 93% 30.36 in 2.5 mi NNW 17.3 mph 23.0 mph 0.00 in Rain Light Freezing Rain
11:04 PM 28.4 °F 15.4 °F 26.6 °F 93% 30.36 in 3.0 mi NNW 19.6 mph 23.0 mph 0.00 in Rain Light Freezing Rain
11:18 PM 28.4 °F 16.6 °F 26.6 °F 93% 30.37 in 3.0 mi NNW 16.1 mph - 0.00 in Rain Light Freezing Rain
11:35 PM 28.4 °F 16.2 °F 26.6 °F 93% 30.36 in 3.0 mi NNW 17.3 mph - 0.00 in Rain Light Freezing Rain
11:53 PM 28.0 °F 16.1 °F 27.0 °F 96% 30.37 in 3.0 mi NNW 16.1 mph - 0.00 in Rain Light Freezing Rain